FW3284 Weather Reports


Display with metric or nautical units.
time (UTC)temp
F
wind
direction
speed
MPH
gust
MPH
rain 1hr
in
rain 24hr
in
rain mn
in
humidity
%
barometer
mb
20260903081519 79 178 0.0 4.0 0.00 0.00 0.00 71 1012.9
20260903080053 79 109 1.0 3.0 0.00 0.00 0.00 70 1012.9
20260903074542 79 141 1.0 3.0 0.00 0.00 0.00 70 1012.9
20260903073018 79 139 0.0 2.0 0.00 0.00 0.00 69 1012.9
20260903071556 80 162 0.0 4.0 0.00 0.00 0.00 67 1013.0
20260903070035 80 140 0.0 5.0 0.00 0.00 0.00 67 1013.0
20260903064513 80 146 1.0 4.0 0.00 0.00 0.00 67 1013.0
20260903063053 80 160 0.0 4.0 0.00 0.00 0.00 66 1013.0
20260903061529 81 156 1.0 5.0 0.00 0.00 0.00 64 1013.0
20260903060006 81 229 1.0 5.0 0.00 0.00 0.00 64 1013.0
20260903054551 82 198 0.0 5.0 0.00 0.00 0.00 63 1012.9
20260903053025 82 184 0.0 3.0 0.00 0.00 0.00 63 1012.9
20260903051510 82 167 0.0 5.0 0.00 0.00 0.00 62 1012.8
20260903050048 82 155 0.0 5.0 0.00 0.00 0.00 62 1012.7
20260903044513 82 140 1.0 3.0 0.00 0.00 0.00 61 1012.8
20260903043054 83 256 0.0 3.0 0.00 0.00 0.00 60 1012.8
20260903041535 83 194 0.0 3.0 0.00 0.00 0.00 59 1012.8
20260903040010 83 25 1.0 4.0 0.00 0.00 0.00 58 1012.7
20260903034548 84 176 1.0 4.0 0.00 0.00 0.00 57 1012.8
20260903033033 84 269 1.0 4.0 0.00 0.00 0.00 57 1012.7
20260903031515 84 173 0.0 5.0 0.00 0.00 0.00 55 1012.6
20260903030109 84 148 0.0 3.0 0.00 0.00 0.00 55 1012.6
20260903024541 85 153 1.0 4.0 0.00 0.00 0.00 54 1012.5
20260903023031 85 167 1.0 3.0 0.00 0.00 0.00 53 1012.4
20260903021521 85 120 0.0 4.0 0.00 0.00 0.00 53 1012.2
20260903020040 84 148 0.0 3.0 0.00 0.00 0.00 54 1012.0
20260903014546 84 170 0.0 3.0 0.00 0.00 0.00 54 1011.9
20260903013030 85 124 0.0 2.0 0.00 0.00 0.00 52 1011.7
20260903011510 87 115 0.0 2.0 0.00 0.00 0.00 49 1011.5
20260903010052 88 170 0.0 2.0 0.00 0.00 0.00 49 1011.4
20260903004532 89 161 0.0 2.0 0.00 0.00 0.00 47 1011.4
20260903003119 90 161 0.0 2.0 0.00 0.00 0.00 46 1011.3
20260903001609 91 141 0.0 2.0 0.00 0.00 0.00 44 1011.3
20260903001506 91 141 0.0 2.0 0.00 0.00 0.00 45 1011.3
20260903000045 92 156 0.0 2.0 0.00 0.00 0.00 43 1011.4
20260902234528 93 154 0.0 2.0 0.00 0.00 0.00 41 1011.4
20260902233009 94 123 0.0 3.0 0.00 0.00 0.00 41 1011.4
20260902231551 94 148 0.0 3.0 0.00 0.00 0.00 40 1011.5
20260902230029 95 164 1.0 5.0 0.00 0.00 0.00 40 1011.6
20260902224514 95 135 2.0 6.0 0.00 0.00 0.00 39 1011.7
20260902223038 96 167 0.0 6.0 0.00 0.00 0.00 39 1011.8
20260902221536 98 149 2.0 3.0 0.00 0.00 0.00 37 1011.7
20260902220008 98 112 1.0 5.0 0.00 0.00 0.00 36 1011.9
20260902214546 98 158 2.0 4.0 0.00 0.00 0.00 36 1011.9
20260902213033 99 208 2.0 5.0 0.00 0.00 0.00 36 1012.0
20260902211600 99 212 1.0 5.0 0.00 0.00 0.00 37 1012.2
20260902210042 99 243 1.0 4.0 0.00 0.00 0.00 37 1012.3
20260902204518 98 210 1.0 8.0 0.00 0.00 0.00 37 1012.4
20260902203057 96 110 4.0 11.0 0.00 0.00 0.00 38 1012.6
20260902201543 98 160 1.0 7.0 0.00 0.00 0.00 38 1012.8
20260902200020 98 231 1.0 8.0 0.00 0.00 0.00 37 1013.0
20260902194506 96 292 2.0 6.0 0.00 0.00 0.00 39 1013.2
20260902193045 98 230 1.0 5.0 0.00 0.00 0.00 40 1013.4
20260902191526 96 242 0.0 2.0 0.00 0.00 0.00 43 1013.6
20260902190101 97 153 2.0 6.0 0.00 0.00 0.00 42 1013.8
20260902190002 97 130 3.0 6.0 0.00 0.00 0.00 42 1013.9
20260902184543 97 185 1.0 6.0 0.00 0.00 0.00 41 1014.0
20260902183031 97 144 1.0 6.0 0.00 0.00 0.00 42 1014.2
20260902181504 96 179 2.0 6.0 0.00 0.00 0.00 42 1014.4
20260902180049 96 193 2.0 7.0 0.00 0.00 0.00 42 1014.6
20260902174533 96 344 2.0 7.0 0.00 0.00 0.00 44 1014.8
20260902173012 95 222 2.0 6.0 0.00 0.00 0.00 47 1015.0
20260902171549 93 31 0.0 7.0 0.00 0.00 0.00 50 1015.2
20260902170028 92 237 2.0 10.0 0.00 0.00 0.00 50 1015.4
20260902164520 92 233 3.0 10.0 0.00 0.00 0.00 50 1015.5
20260902163055 92 197 3.0 7.0 0.00 0.00 0.00 50 1015.6
20260902161540 92 265 3.0 6.0 0.00 0.00 0.00 50 1015.7
20260902160018 91 245 2.0 8.0 0.00 0.00 0.00 51 1015.8
20260902154559 89 224 2.0 9.0 0.00 0.00 0.00 54 1015.8
20260902153033 89 225 3.0 10.0 0.00 0.00 0.00 54 1015.7
20260902151512 88 202 4.0 13.0 0.00 0.00 0.00 56 1015.7
20260902150048 87 238 2.0 8.0 0.00 0.00 0.00 58 1015.7
20260902144538 86 258 3.0 8.0 0.00 0.00 0.00 59 1015.6
20260902143024 86 248 5.0 10.0 0.00 0.00 0.00 59 1015.7
20260902141601 86 248 3.0 8.0 0.00 0.00 0.00 60 1015.7
20260902141502 86 239 2.0 8.0 0.00 0.00 0.00 60 1015.6
20260902140046 86 224 1.0 5.0 0.00 0.00 0.00 60 1015.6
20260902134522 85 225 1.0 6.0 0.00 0.00 0.00 61 1015.6
20260902133058 83 294 1.0 5.0 0.00 0.00 0.00 62 1015.8
20260902131600 83 175 1.0 6.0 0.00 0.00 0.00 64 1015.8
20260902130030 81 212 1.0 4.0 0.00 0.00 0.00 66 1015.8
20260902124502 80 189 1.0 4.0 0.00 0.00 0.00 67 1015.8
20260902123038 79 288 0.0 2.0 0.00 0.00 0.00 69 1015.9
20260902121520 78 182 0.0 2.0 0.00 0.00 0.00 70 1015.6
20260902120100 76 174 0.0 2.0 0.00 0.00 0.00 72 1015.5
20260902114551 76 252 0.0 2.0 0.00 0.00 0.00 73 1015.4
20260902113018 76 141 0.0 2.0 0.00 0.00 0.00 71 1015.2
20260902111602 77 49 0.0 2.0 0.00 0.00 0.00 69 1015.0
20260902110053 78 1 0.0 2.0 0.00 0.00 0.00 67 1014.9
20260902104523 79 122 0.0 3.0 0.00 0.00 0.00 66 1014.8
20260902103105 79 209 0.0 5.0 0.00 0.00 0.00 66 1014.8
20260902101536 79 79 1.0 4.0 0.00 0.00 0.00 65 1014.8
20260902100016 79 184 0.0 3.0 0.00 0.00 0.00 65 1014.7
20260902094556 79 272 0.0 4.0 0.00 0.00 0.00 64 1014.7
20260902093040 79 215 1.0 2.0 0.00 0.00 0.00 64 1014.6
20260902091528 79 190 1.0 4.0 0.00 0.00 0.00 64 1014.4
20260902090005 79 193 1.0 5.0 0.00 0.00 0.00 65 1014.4
20260902084534 79 224 1.0 4.0 0.00 0.00 0.00 65 1014.5
20260902083012 79 118 1.0 5.0 0.00 0.00 0.00 66 1014.6